Location: Tucson
(32.2217°N, 110.9265°W)
Time: 19:41:32
(UTC-07:00)

ISS - Pass Details

Date: 04 October 2021
Orbit: 417 x 423 km, 51.6° (Epoch: 22 October)

Event Time Altitude Azimuth Distance (km) Brightness Sun altitude
Rises 19:54:38 0° 316° (NW) 2,359 0.9 -24.1°
Reaches altitude 10° 19:56:44 10° 317° (NW) 1,494 -0.3 -24.6°
Enters shadow 19:58:25 27° 321° (NW) 835 -1.8 -24.9°
